When you browse on this site, cookies collect data to enhance your experience and personalize the content and advertising you see.
Visit our Privacy Policy to learn more. By continuing to use the site, you agree to this use of cookies and data.
  • In United Kingdom
  • List of Countries
  • For 7 days
  • Water Temperature
  • Weather Map
  • Weather Widgets
  • user-avatar
    Login

    Hourly Weather La Paz

    Today, 6 December, Friday

    Time Temperature Precipitation Wind Pressure Humidity
    00:00 +9°C° 0.3 mm 1 mps 474 mmHg 87%
    01:00 +9°C° 0.3 mm 1 mps 474 mmHg 85%
    02:00 +9°C° 0.7 mm 1 mps 474 mmHg 85%
    03:00 +8°C° 0.7 mm 1 mps 473 mmHg 86%
    04:00 +8°C° 0.7 mm 1 mps 473 mmHg 87%
    05:00 +8°C° 0.3 mm 1 mps 474 mmHg 86%
    06:00 +9°C° 0.3 mm 1 mps 474 mmHg 85%
    07:00 +9°C° 0.3 mm 1 mps 475 mmHg 84%
    08:00 +9°C° 0.8 mm 1 mps 475 mmHg 84%
    09:00 +8°C° 0.8 mm 2 mps 474 mmHg 85%
    10:00 +8°C° 0.8 mm 2 mps 474 mmHg 85%
    11:00 +8°C° 0.5 mm 2 mps 474 mmHg 82%
    12:00 +9°C° 0.5 mm 2 mps 474 mmHg 80%
    13:00 +9°C° 0.5 mm 2 mps 474 mmHg 77%
    14:00 +10°C° 0.1 mm 2 mps 474 mmHg 72%
    15:00 +12°C° 0.1 mm 1 mps 474 mmHg 67%
    16:00 +12°C° 0.1 mm 1 mps 474 mmHg 62%
    17:00 +11°C° 0.1 mm 1 mps 474 mmHg 68%
    18:00 +10°C° 0.1 mm 1 mps 474 mmHg 75%
    19:00 +10°C° 0.1 mm 1 mps 473 mmHg 82%
    20:00 +9°C° 0.1 mm 1 mps 474 mmHg 83%
    21:00 +9°C° 0.1 mm 1 mps 474 mmHg 83%
    22:00 +9°C° 0.1 mm 1 mps 474 mmHg 84%
    23:00 +8°C° 0.1 mm 0 mps 474 mmHg 85%

    Tomorrow, 7 December, Saturday

    Time Temperature Precipitation Wind Pressure Humidity
    00:00 +7°C° 0.1 mm 0 mps 473 mmHg 86%
    01:00 +7°C° 0.1 mm 0 mps 473 mmHg 87%
    02:00 +7°C° 0 mm 0 mps 472 mmHg 87%
    03:00 +6°C° 0 mm 0 mps 472 mmHg 88%
    04:00 +6°C° 0 mm 0 mps 471 mmHg 89%
    05:00 +8°C° 0 mm 1 mps 473 mmHg 84%
    06:00 +9°C° 0 mm 1 mps 474 mmHg 80%
    07:00 +10°C° 0 mm 1 mps 475 mmHg 75%
    08:00 +11°C° 0.5 mm 1 mps 475 mmHg 73%
    09:00 +12°C° 0.5 mm 2 mps 475 mmHg 71%
    10:00 +13°C° 0.5 mm 2 mps 475 mmHg 69%
    11:00 +13°C° 1.2 mm 2 mps 475 mmHg 67%
    12:00 +13°C° 1.2 mm 3 mps 475 mmHg 65%
    13:00 +13°C° 1.2 mm 3 mps 475 mmHg 63%
    14:00 +13°C° 1 mm 3 mps 474 mmHg 64%
    15:00 +12°C° 1 mm 3 mps 474 mmHg 65%
    16:00 +12°C° 1 mm 3 mps 473 mmHg 66%
    17:00 +11°C° 0.5 mm 3 mps 473 mmHg 72%
    18:00 +10°C° 0.5 mm 2 mps 473 mmHg 77%
    19:00 +9°C° 0.5 mm 2 mps 473 mmHg 82%
    20:00 +8°C° 0.2 mm 2 mps 473 mmHg 83%
    21:00 +9°C° 0.2 mm 1 mps 473 mmHg 83%
    22:00 +9°C° 0.2 mm 1 mps 473 mmHg 84%
    23:00 +9°C° 0.1 mm 1 mps 473 mmHg 85%

    Day after tomorrow, 8 December, Sunday

    Time Temperature Precipitation Wind Pressure Humidity
    00:00 +8°C° 0.1 mm 1 mps 473 mmHg 87%
    01:00 +8°C° 0.1 mm 1 mps 472 mmHg 88%
    02:00 +8°C° 0.1 mm 1 mps 472 mmHg 89%
    03:00 +8°C° 0.1 mm 1 mps 472 mmHg 89%
    04:00 +8°C° 0.1 mm 1 mps 472 mmHg 90%
    05:00 +8°C° 0.1 mm 1 mps 472 mmHg 87%
    06:00 +9°C° 0.1 mm 1 mps 473 mmHg 84%
    07:00 +9°C° 0.1 mm 1 mps 473 mmHg 81%
    08:00 +10°C° 0.3 mm 1 mps 474 mmHg 77%
    09:00 +11°C° 0.3 mm 1 mps 474 mmHg 73%
    10:00 +12°C° 0.3 mm 1 mps 475 mmHg 69%
    11:00 +13°C° 0.8 mm 1 mps 475 mmHg 66%
    12:00 +13°C° 0.8 mm 2 mps 474 mmHg 64%
    13:00 +14°C° 0.8 mm 2 mps 474 mmHg 62%
    14:00 +14°C° 0.7 mm 2 mps 474 mmHg 61%
    15:00 +14°C° 0.7 mm 2 mps 474 mmHg 61%
    16:00 +14°C° 0.7 mm 2 mps 473 mmHg 60%
    17:00 +13°C° 0.5 mm 2 mps 473 mmHg 67%
    18:00 +12°C° 0.5 mm 2 mps 473 mmHg 74%
    19:00 +10°C° 0.5 mm 3 mps 473 mmHg 81%
    20:00 +9°C° 0.1 mm 2 mps 473 mmHg 80%
    21:00 +10°C° 0.1 mm 1 mps 473 mmHg 80%
    22:00 +10°C° 0.1 mm 1 mps 473 mmHg 79%
    23:00 +9°C° 0 mm 1 mps 473 mmHg 82%

    9 December, Monday

    Time Temperature Precipitation Wind Pressure Humidity
    00:00 +9°C° 0 mm 1 mps 472 mmHg 85%
    01:00 +8°C° 0 mm 1 mps 472 mmHg 87%
    02:00 +8°C° 0 mm 1 mps 471 mmHg 88%
    03:00 +7°C° 0 mm 1 mps 471 mmHg 89%
    04:00 +6°C° 0 mm 0 mps 471 mmHg 89%
    05:00 +8°C° 0 mm 1 mps 472 mmHg 81%
    06:00 +9°C° 0 mm 1 mps 473 mmHg 73%
    07:00 +10°C° 0 mm 1 mps 474 mmHg 65%
    08:00 +11°C° 0.1 mm 1 mps 474 mmHg 63%
    09:00 +12°C° 0.1 mm 2 mps 475 mmHg 60%
    10:00 +14°C° 0.1 mm 2 mps 476 mmHg 58%
    11:00 +14°C° 0.4 mm 2 mps 475 mmHg 57%
    12:00 +14°C° 0.4 mm 3 mps 475 mmHg 56%
    13:00 +14°C° 0.4 mm 3 mps 475 mmHg 56%
    14:00 +14°C° 0.3 mm 3 mps 474 mmHg 57%
    15:00 +14°C° 0.3 mm 3 mps 474 mmHg 58%
    16:00 +14°C° 0.3 mm 3 mps 473 mmHg 59%
    17:00 +12°C° 0.2 mm 3 mps 473 mmHg 65%
    18:00 +11°C° 0.2 mm 3 mps 473 mmHg 71%
    19:00 +10°C° 0.2 mm 2 mps 472 mmHg 78%
    20:00 +9°C° 0 mm 2 mps 473 mmHg 80%
    21:00 +9°C° 0 mm 2 mps 473 mmHg 82%
    22:00 +9°C° 0 mm 3 mps 473 mmHg 84%
    23:00 +8°C° 0 mm 2 mps 473 mmHg 85%

    10 December, Tuesday

    Time Temperature Precipitation Wind Pressure Humidity
    00:00 +8°C° 0 mm 2 mps 472 mmHg 86%
    01:00 +8°C° 0 mm 2 mps 472 mmHg 86%
    02:00 +8°C° 0 mm 2 mps 472 mmHg 87%
    03:00 +7°C° 0 mm 2 mps 472 mmHg 88%
    04:00 +8°C° 0 mm 1 mps 472 mmHg 88%
    05:00 +9°C° 0 mm 1 mps 472 mmHg 85%
    06:00 +9°C° 0 mm 1 mps 473 mmHg 81%
    07:00 +10°C° 0 mm 1 mps 474 mmHg 78%
    08:00 +10°C° 0.1 mm 2 mps 475 mmHg 72%
    09:00 +13°C° 0.1 mm 2 mps 475 mmHg 66%
    10:00 +14°C° 0.1 mm 2 mps 476 mmHg 60%
    11:00 +14°C° 0.2 mm 3 mps 476 mmHg 57%
    12:00 +14°C° 0.2 mm 3 mps 476 mmHg 55%
    13:00 +16°C° 0.2 mm 3 mps 476 mmHg 52%
    14:00 +16°C° 0.1 mm 3 mps 475 mmHg 53%
    15:00 +16°C° 0.1 mm 3 mps 475 mmHg 54%
    16:00 +14°C° 0.1 mm 3 mps 474 mmHg 55%
    17:00 +13°C° 0.1 mm 3 mps 474 mmHg 62%
    18:00 +12°C° 0.1 mm 3 mps 474 mmHg 69%
    19:00 +10°C° 0.1 mm 3 mps 473 mmHg 77%
    20:00 +10°C° 0 mm 2 mps 473 mmHg 77%
    21:00 +9°C° 0 mm 2 mps 473 mmHg 78%
    22:00 +9°C° 0 mm 2 mps 473 mmHg 79%
    23:00 +8°C° 0 mm 2 mps 473 mmHg 80%

    11 December, Wednesday

    Time Temperature Precipitation Wind Pressure Humidity
    00:00 +8°C° 0 mm 2 mps 472 mmHg 82%
    01:00 +8°C° 0 mm 1 mps 472 mmHg 83%
    02:00 +8°C° 0 mm 1 mps 471 mmHg 84%
    03:00 +8°C° 0 mm 1 mps 471 mmHg 85%
    04:00 +7°C° 0 mm 1 mps 471 mmHg 85%
    05:00 +8°C° 0 mm 1 mps 472 mmHg 81%
    06:00 +9°C° 0 mm 1 mps 473 mmHg 76%
    07:00 +9°C° 0 mm 2 mps 474 mmHg 72%
    08:00 +10°C° 0.2 mm 2 mps 475 mmHg 67%
    09:00 +12°C° 0.2 mm 3 mps 475 mmHg 63%
    10:00 +13°C° 0.2 mm 3 mps 476 mmHg 59%
    11:00 +14°C° 0.3 mm 4 mps 476 mmHg 56%
    12:00 +14°C° 0.3 mm 4 mps 476 mmHg 54%
    13:00 +15°C° 0.3 mm 4 mps 476 mmHg 52%
    14:00 +14°C° 0.6 mm 4 mps 474 mmHg 58%
    15:00 +12°C° 0.6 mm 4 mps 473 mmHg 65%
    16:00 +11°C° 0.6 mm 4 mps 472 mmHg 71%
    17:00 +10°C° 0.8 mm 3 mps 472 mmHg 74%
    18:00 +10°C° 0.8 mm 3 mps 473 mmHg 76%
    19:00 +9°C° 0.8 mm 2 mps 473 mmHg 78%
    20:00 +9°C° 0.1 mm 2 mps 473 mmHg 80%
    21:00 +9°C° 0.1 mm 2 mps 473 mmHg 81%
    22:00 +8°C° 0.1 mm 2 mps 474 mmHg 82%
    23:00 +8°C° 0.1 mm 2 mps 473 mmHg 83%
    Show more